{"data":{"norad_id":62476,"epoch":"2026-09-21T12:53:56.538816Z","epoch_age_seconds":84897,"freshness":"FRESH","line1":"1 62476U 24254Q   26264.53745994  .00010646  00000+0  39571-3 0  9992","line2":"2 62476  43.0008 350.4732 0001717 274.2170  85.8485 15.27589560 97603","mean_motion":15.2758956,"eccentricity":0.0001717,"inclination_deg":43.0008,"raan_deg":350.4732,"arg_perigee_deg":274.217,"mean_anomaly_deg":85.8485,"bstar":0.00039571,"rev_number":9760,"period_min":94.266158771077,"perigee_km":481.84240937213,"apogee_km":484.19853084737,"semimajor_km":6861.1574701098,"source":"CELESTRAK","updated_at":"2026-09-22T09:00:49.613921Z"}}